Weather Roundup
Issued by NWS

Home | Current Version | Previous Version | Graphics & Text | Print | Product List | Glossary Off
Versions: 1 2 3 4 5 6 7 8 9 10 11 12 13 14 15 16 17 18 19 20 21 22 23 24 25 26 27 28 29 30 31 32 33 34 35 36 37 38 39 40 41 42 43 44 45 46 47 48 49 50

000
NZUS93 KARX 010959
HRRWXR

CURRENT HOURLY OBSERVATIONS ACROSS
MUCH OF THE UPPER MISSISSIPPI VALLEY
NATIONAL WEATHER SERVICE LA CROSSE WI
500 AM CDT TUE SEP 01 2015


...SOUTHEAST MINNESOTA...


CITY           SKY/WX    TMP DP  RH WIND       PRES   REMARKS
ROCHESTER      FOG       65  65 100 S5        29.96F VSB 1/4
ROCHESTER/MAYO FAIR      69  70 100 SE3       29.96S
WINONA         PTCLDY    70  68  94 CALM      29.95S FOG
AUSTIN         FOG       68  66  94 S3        29.96S VSB 1/4
ALBERT LEA     CLOUDY    68  68 100 CALM      29.95S FOG
DODGE CENTER   FOG       66  64  94 CALM      29.96S VSB 1/4
PRESTON          N/A     67  66  95 S6        29.98S FOG
OWATONNA       CLEAR     68  64  88 SE8       29.94S FOG
FARIBAULT      PTCLDY    66  64  94 CALM      29.93F FOG
$$

...ELSEWHERE IN MINNESOTA...


CITY           SKY/WX    TMP DP  RH WIND       PRES   REMARKS
MINNEAPOLIS    PTCLDY    73  66  78 S7        29.90F
INTNL FALLS    FOG       53  53 100 SW3       29.87S VSB 1/2
DULUTH         CLOUDY    70  67  90 W6        29.89S FOG
RED WING       CLEAR     66  66 100 CALM      29.92S FOG
REDWOOD FALLS  MOCLDY    68  66  93 CALM      29.89S FOG
MANKATO        PTCLDY    66  63  88 S8        29.92S
WORTHINGTON    CLEAR     66  63  88 S6        29.92S
FAIRMONT       PTCLDY    63  57  82 S5        29.92S
$$

...SOUTHWEST WISCONSIN...


CITY           SKY/WX    TMP DP  RH WIND       PRES   REMARKS
LA CROSSE      CLEAR     71  69  93 SE6       29.95R FOG
PRAIRIE DU CHI CLEAR     69  68  94 CALM      29.97R FOG
BOSCOBEL       FOG       66  65  96 CALM      29.98R VSB 1/4
LONE ROCK      NOT AVBL
PLATTEVILLE    CLEAR     70  70  99 S7        30.00R
FORT MC COY    CLEAR     64  62  95 CALM      29.98R FOG
VIROQUA          N/A     69  69 100 S3        29.99R
WIS DELLS      CLEAR     70  67  89 S6        29.98S
$$

...ELSEWHERE IN WISCONSIN...


CITY           SKY/WX    TMP DP  RH WIND       PRES   REMARKS
MILWAUKEE      CLEAR     69  66  90 S3        30.02S FOG
MADISON        CLEAR     70  67  90 CALM      29.99S FOG
GREEN BAY      CLEAR     66  65  96 S6        29.99F FOG
EAU CLAIRE     NOT AVBL
BLACK RVR FLS  FOG       61  61 100 CALM      29.96S VSB<1/4
MEDFORD        CLEAR     66  66 100 S6        29.98S FOG
WAUSAU         MOCLDY    66  65  96 SE6       29.97F FOG
WIS RAPIDS     MOCLDY    67  64  90 CALM      29.99S FOG
MARSHFIELD     FOG       65  62  90 S5        29.98S VSB 1/2
RICE LAKE      FOG       67  66  96 CALM      29.95S VSB<1/4
$$

...NORTHEAST IOWA...


CITY           SKY/WX    TMP DP  RH WIND       PRES   REMARKS
DECORAH        PTCLDY    70  70 100 S5        29.97R FOG
MASON CITY     FOG       63  63 100 CALM      29.97S VSB 1/4
CHARLES CITY   FOG       68  68 100 S6        29.97F VSB 1
OELWEIN          N/A    N/A N/A N/A MISG      29.99R
$$

...ELSEWHERE IN IOWA...


CITY           SKY/WX    TMP DP  RH WIND       PRES   REMARKS
DES MOINES     CLEAR     71  67  87 S8        29.96R
IOWA CITY      FOG       67  66  97 CALM      30.00R VSB 1/4
FORT DODGE     CLEAR     68  64  88 S3        29.95S
$$

...NORTHERN ILLINOIS...


CITY           SKY/WX    TMP DP  RH WIND       PRES   REMARKS
CHICAGO-OHARE  CLEAR     70  68  93 CALM      30.03S
CHICAGO-MIDWAY PTCLDY    75  69  81 S6        30.03F
MOLINE         PTCLDY    73  69  87 CALM      30.00R
ROCKFORD       PTCLDY    70  67  90 S5        30.03S FOG
PEORIA         PTCLDY    74  70  87 S6        30.04S FOG
$$

NOTE: "FAIR" INDICATES FEW OR NO CLOUDS BELOW 12,000 FEET WITH NO
SIGNIFICANT WEATHER AND/OR OBSTRUCTIONS TO VISIBILITY. WIND
SPEEDS ARE IN MILES-PER-HOUR.



USA.gov is the U.S. government's official web portal to all federal, state and local government web resources and services.